Home   Weather   Olympia   Past weeks

Flag for USA Past Weather in Olympia, Washington, USA — Yesterday and Last 2 Weeks

Now
34 °F

Light rain. Fog.


Feels Like: 27 °F
Forecast: 31 / 41 °F
Wind: 8 mph from Southwest

Location: Olympia Airport

Current Time: Dec 9, 2016 at 7:38:38 am

Latest Report: Dec 9, 2016 at 6:54 am


Visibility: 5 mi

Pressure: 29.97 "Hg

Humidity: 100%

Dew Point: 34 °F

Location of OlympiaLocation

Past Weather in Olympia — Graph

°F

Olympia Temperature Yesterday

Maximum temperature yesterday: 39 °F (at 12:54 pm)
Minimum temperature yesterday: 28 °F (at 5:54 am)
Average temperature yesterday: 32 °F

High & Low Weather Summary for the Past Weeks

 TemperatureHumidityPressure
High51 °F (Nov 28, 12:54 pm)100% (Nov 25, 4:54 am)30.42 "Hg (Nov 25, 4:54 am)
Low20 °F (Dec 7, 6:54 am)43% (Dec 8, 12:54 pm)29.42 "Hg (Nov 26, 1:54 pm)
Average41 °F90%30.02 "Hg
* Reported Nov 24 5:54 am — Dec 9 5:54 am, Olympia, Weather by CustomWeather, © 2016

Note: Actual official high and low records may vary slightly from our data, if they occured in-between our weather recording intervals... More about our weather records

Advertising

Olympia Weather History for the Previous 24 Hours

Scroll right to see more
 ConditionsComfort  
Time TempWeatherWind HumidityBarometerVisibility
5:54 am
Fri, Dec 9
34 °FMostly cloudy.6 mph97%29.97 "Hg10 mi
4:54 am33 °FOvercast.5 mph100%29.96 "Hg9 mi
3:54 am32 °FLight freezing rain. Ice fog.No wind100%29.98 "Hg5 mi
2:54 am31 °FLight snow. Ice fog.3 mph100%29.98 "Hg4 mi
2:03 am31 °FLight snow. Ice fog.3 mph100%29.98 "Hg2 mi
1:54 am31 °FLight snow. Ice fog.No wind100%29.98 "Hg1 mi
12:54 am31 °FIce fog.No wind100%29.97 "Hg4 mi
12:01 am31 °FLight snow. Ice fog.No wind100%29.96 "Hg3 mi
11:01 pm
Thu, Dec 8
31 °FLight snow. Ice fog.No wind100%29.95 "Hg1 mi
10:04 pm31 °FLight snow. Ice fog.6 mph100%29.93 "Hg2 mi
9:50 pm31 °FLight snow. Ice fog.8 mph100%29.93 "Hg3 mi
9:04 pm31 °FLight snow. Ice fog.7 mph100%29.92 "Hg2 mi
8:03 pm30 °FLight snow. Ice fog.9 mph100%29.91 "Hg1 mi
7:54 pm30 °FLight snow. Ice fog.9 mph100%29.92 "Hg1 mi
6:57 pm30 °FLight snow. Ice fog.8 mph100%29.89 "Hg2 mi
5:54 pm31 °FSnow. Ice fog.8 mph100%29.91 "Hg1 mi
4:54 pm32 °FLight snow. Ice fog.8 mph96%29.92 "Hg1 mi
3:54 pm31 °FLight snow. Ice fog.5 mph100%29.93 "Hg1 mi
2:54 pm35 °FSnow. Low clouds.8 mph56%29.93 "Hg2 mi
1:54 pm37 °FScattered clouds.10 mph44%29.93 "Hg10 mi
12:54 pm39 °FPassing clouds.14 mph43%29.94 "Hg10 mi
11:54 am36 °FPartly sunny.12 mph46%29.96 "Hg10 mi
10:54 am35 °FSunny.12 mph48%30.01 "Hg10 mi
9:54 am35 °FSunny.13 mph50%30.02 "Hg10 mi
8:54 am33 °FPartly sunny.10 mph56%30.04 "Hg10 mi
7:54 am31 °FSunny.10 mph61%30.05 "Hg10 mi
Weather by CustomWeather, © 2016

See weather overviewHow to use our weather pages